Regional Weather Roundup
Issued by NWS

Home | Current Version | Previous Version | Graphics & Text | Print | Product List | Glossary Off
Versions: 1 2 3 4 5 6 7 8 9 10 11 12 13 14 15 16 17 18 19 20 21 22 23 24 25 26 27 28 29 30 31 32 33 34 35 36 37 38 39 40 41 42 43 44 45 46 47 48 49 50

000
ASUS43 KMKX 060211
RWRWI

WISCONSIN REGIONAL WEATHER ROUNDUP
NATIONAL WEATHER SERVICE MILWAUKEE/SULLIVAN WI
900 PM CDT THU MAY 05 2016

NOTE: "FAIR" INDICATES FEW OR NO CLOUDS BELOW 12,000 FEET WITH NO
SIGNIFICANT WEATHER AND/OR OBSTRUCTIONS TO VISIBILITY.

WIZ001-002-006>008-014>016-023>028-060300-
NORTHWEST WISCONSIN

CITY           SKY/WX    TMP DP  RH WIND       PRES   REMARKS
SUPERIOR ARPT  CLEAR     72  41  33 SW10      29.77S
ASHLAND        PTCLDY    66  40  38 S7        29.82F
HAYWARD        CLEAR     60  39  45 S7        29.86F
SIREN          CLEAR     65  38  37 S6        29.86R
CUMBERLAND     CLEAR     55  37  50 S6        29.88S
RICE LAKE      CLEAR     61  39  44 S6        29.90S
CHETEK         CLEAR     60  40  47 S5        29.89F
LADYSMITH      PTCLDY    61  40  46 S6        29.91S
EAU CLAIRE     PTCLDY    62  39  42 S7        29.90F
MENOMONIE      CLEAR     60  38  44 S5        29.89F
NEW RICHMOND   CLEAR     63  38  39 S7        29.88S
OSCEOLA        CLEAR     63  40  42 SE7       29.89S
$$

WIZ003>005-009-010-017-018-060300-
NORTH CENTRAL WISCONSIN

CITY           SKY/WX    TMP DP  RH WIND       PRES   REMARKS
MANITOWISH WTR CLEAR     58  38  49 S5        29.89S
ARBOR VITAE    PTCLDY    60  40  47 SW3       29.90R
WOODRUFF       PTCLDY    60  40  47 SW3       29.90R
RHINELANDER    CLOUDY    60  38  43 CALM      29.92S
EAGLE RIVER    CLOUDY    58  35  42 SW3       29.90S
LAND O LAKES   CLOUDY    59  36  41 S3        29.91S
PHILLIPS       PTCLDY    59  39  47 S6        29.89F
TOMAHAWK       PTCLDY    57  38  49 S3        29.92R
MEDFORD        PTCLDY    57  41  54 S3        29.92S
MERRILL        MOCLDY    58  43  56 CALM      29.93S
$$

WIZ029-030-035-036-043>047-060300-
CENTRAL WISCONSIN

CITY           SKY/WX    TMP DP  RH WIND       PRES   REMARKS
WAUSAU         PTCLDY    61  41  47 SW5       29.90F
MOSINEE        PTCLDY    57  36  44 SW3       29.94S
MARSHFIELD     PTCLDY    61  39  44 W5        29.93S
STEVENS POINT  CLEAR     53  36  52 CALM      29.93S
WAUPACA        CLEAR     58  33  39 CALM      29.93S
WAUTOMA        CLEAR     54  35  48 CALM      29.94S
WISC RAPIDS    CLEAR     55  38  52 CALM      29.95R
CAMP DOUGLAS     N/A     55  41  60 CALM      29.94S
$$

WIZ011>013-019>022-031-037>040-048>050-060300-
NORTHEAST WISCONSIN

CITY           SKY/WX    TMP DP  RH WIND       PRES   REMARKS
ANTIGO         CLEAR     53  39  59 CALM      29.93R
SHAWANO        CLEAR     63  33  32 SW3       29.92S
OCONTO         CLEAR     52  45  76 S7        29.91S
STURGEON BAY   CLEAR     46  36  66 S9        29.95S
GREEN BAY      CLEAR     57  41  55 SW5       29.92S
MANITOWOC      CLEAR     47  38  71 SE7       29.95S
APPLETON       PTCLDY    54  36  50 S7        29.92S
CLINTONVILLE   CLEAR     57  34  41 SW3       29.92S
OSHKOSH        CLEAR     51  39  63 S5        29.93S
$$

WIZ032>034-041-042-053>061-060300-
SOUTHWEST WISCONSIN

CITY           SKY/WX    TMP DP  RH WIND       PRES   REMARKS
LA CROSSE      PTCLDY    63  41  44 S5        29.93F
SPARTA         CLEAR     57  42  57 CALM      29.95R
VIROQUA        PTCLDY    60  37  41 S6        29.95S
BOSCOBEL       CLEAR     56  41  57 CALM      29.96S
PRAIRIE DU CHI CLEAR     59  41  51 CALM      29.96S
PLATTEVILLE    CLEAR     58  35  42 SW5       29.98R
$$

WIZ056-057-062-063-064-067-068-060300-
SOUTH CENTRAL WISCONSIN

CITY           SKY/WX    TMP DP  RH WIND       PRES   REMARKS
REEDSBURG      CLEAR     57  37  46 CALM      29.95R
BARABOO/DELLS  CLEAR     55  33  42 CALM      29.96R
LONE ROCK      CLEAR     55  40  56 CALM      29.96S
MINERAL POINT  PTCLDY    57  32  38 SW5       29.97S
MADISON        PTCLDY    52  38  58 CALM      29.95S
MIDDLETON      CLEAR     51  39  63 CALM      29.96S
WATERTOWN      CLEAR     50  40  68 CALM      29.95R
MONROE         CLEAR     59  34  38 W8        29.96S
JANESVILLE     CLEAR     55  37  50 CALM      29.96S
$$

WIZ051-052-058>065-066-070>072-060300-
SOUTHEAST WISCONSIN

CITY           SKY/WX    TMP DP  RH WIND       PRES   REMARKS
MILWAUKEE      PTCLDY    49  36  61 S5        29.97S
WAUKESHA       CLEAR     48  37  66 SE5       29.97S
MILWAUKEE/TIMM NOT AVBL
RACINE         CLEAR     48  35  60 CALM      29.99S
BURLINGTON     CLEAR     50  40  67 CALM      29.97S
KENOSHA        CLEAR     45  36  70 SE3       29.97S
FOND DU LAC    CLEAR     50  41  71 SE5       29.94R
SHEBOYGAN      CLEAR     45  38  76 S7        29.96R
WEST BEND      CLEAR     48  37  66 CALM      29.97R
JUNEAU         CLEAR     56  37  49 CALM      29.96R
$$

LSZ147-162-060300-
LAKE SUPERIOR

STATION/POSITION TIME  TEMP    WIND        PRES    WAVE
                       AIR SEA DIR/SP/G            HT/PER
                 (UTC) (F)     (DEG/KT/KT) (MB)    (FT/S)
W MID LAKE BUOY  0150   42 37  110/ 10/ 10 1010.0R   0
DEVILS ISLAND    0200   69     190/ 12/ 17 1008.1F
SAXON HARBOR     0100   70     200/  7/ 12 1009.5F
$$

LMZ867-665-643>646-060300-
LAKE MICHIGAN

STATION/POSITION TIME  TEMP    WIND        PRES    WAVE
                       AIR SEA DIR/SP/G            HT/PER
                 (UTC) (F)     (DEG/KT/KT) (MB)    (FT/S)
CHAMBERS ISLAND  0100   54     150/  3/  8 1013.2
N MID LAKE BUOY  0150   40 39  200/  6/  8 1013.8R   0
NORTHPORT PIER   0100   49     190/  2/  7 1013.2F
ALGOMA LAKESHORE 0115          210/ 10/ 12   N/A
KEWAUNEE LAKESHO 0100   46                 1013.4S
SHEBOYGAN LAKESH 0200   47     210/  5/  5 1015.2R
PORT WASHINGTON  0100   47     200/  3/  4 1015.2F
S MID LAKE BUOY  0150   43 40  300/  4/  4 1014.8R   2/ 5
KENOSHA   LAKESH 0200   48     190/  3/  3 1014.9S
$$

TC  - TEMPERATURE IN CELSIUS
VSB - VISIBILITY IN STATUTE MILES
WCI - WIND CHILL INDEX
HX  - HEAT INDEX




USA.gov is the U.S. government's official web portal to all federal, state and local government web resources and services.